This demonstration page uses our WeatherBlox Daily Observations layout. Learn more.

Left ArrowRight Arrow

40.92945, -100.16068

Hourly Observations for October 19, 2018

Temp ( °F °C ) Dew Point ( °F °C ) Humidity (%) Winds ( mph kmh ) Pressure ( in mb ) Visibility ( mi km ) Precip ( " mm )
12:15 am 00:15 Cloudy 53 11.8 46 7.8 77 77 SSW 10 17 30.09 1019 10 16.0934 0 0
12:35 am 00:35 Cloudy 53 11.7 46 8 78 78 SSW 13 20 30.09 1019 10 16.0934 0 0
12:55 am 00:55 Cloudy 53 11.7 47 8.1 79 79 SSW 12 19 30.09 1019 10 16.0934 0 0
1:15 am 01:15 Cloudy with Light Rain 53 11.5 47 8.5 82 82 SW 13 20 30.09 1019 10 16.0934 0 0
1:35 am 01:35 Cloudy 53 11.5 47 8.6 83 83 SW 12 19 30.09 1019 10 16.0934 0 0
1:55 am 01:55 Cloudy 53 11.5 47 8.6 83 83 SW 12 19 30.09 1019 10 16.0934 0 0
2:15 am 02:15 Cloudy 53 11.5 47 8.6 83 83 SW 12 19 30.09 1019 10 16.0934 0 0
2:35 am 02:35 Cloudy 53 11.5 47 8.6 83 83 SSW 10 17 30.06 1018 10 16.0934 0 0
2:55 am 02:55 Mostly Cloudy 52 10.9 47 8.2 84 84 SSW 10 17 30.06 1018 10 16.0934 0 0
3:15 am 03:15 Partly Cloudy 50 10.2 46 8 86 86 SSW 9 15 30.06 1018 10 16.0934 0 0
3:35 am 03:35 Clear 50 10 46 7.9 87 87 SSW 9 15 30.06 1018 10 16.0934 0 0
3:55 am 03:55 Clear 50 9.8 46 7.8 87 87 SSW 9 15 30.06 1018 10 16.0934 0 0
4:15 am 04:15 Clear 49 9.6 46 7.6 87 87 SSW 9 15 30.06 1018 10 16.0934 0 0
4:35 am 04:35 Clear 49 9.5 46 7.6 88 88 SW 8 13 30.06 1018 10 16.0934 0 0
4:55 am 04:55 Clear 49 9.3 46 7.6 89 89 SW 10 17 30.06 1018 10 16.0934 0 0
5:15 am 05:15 Clear 49 9.5 46 7.6 88 88 SW 12 19 30.06 1018 10 16.0934 0 0
5:35 am 05:35 Clear 49 9.3 46 7.5 89 89 SW 10 17 30.06 1018 10 16.0934 0 0
5:55 am 05:55 Clear 48 9.1 45 7.2 88 88 SW 9 15 30.06 1018 10 16.0934 0 0
6:15 am 06:15 Clear 49 9.2 45 7.2 87 87 SW 8 13 30.06 1018 10 16.0934 0 0
6:35 am 06:35 Clear 48 9 45 7.1 88 88 SW 9 15 30.06 1018 10 16.0934 0 0
6:55 am 06:55 Clear 48 8.9 44 6.9 87 87 WSW 7 11 30.06 1018 10 16.0934 0 0
7:15 am 07:15 Clear 47 8.6 44 6.7 88 88 SW 9 15 30.06 1018 10 16.0934 0 0
7:35 am 07:35 Clear 47 8.1 43 6.3 89 89 WSW 8 13 30.06 1018 10 16.0934 0 0
7:55 am 07:55 Sunny 46 7.7 43 6.1 90 90 WSW 7 11 30.06 1018 10 16.0934 0 0
8:15 am 08:15 Sunny 45 7.1 42 5.5 90 90 W 6 9 30.06 1018 10 16.0934 0 0
8:35 am 08:35 Sunny 46 7.8 43 6.1 89 89 W 6 9 30.06 1018 10 16.0934 0 0
8:55 am 08:55 Sunny 47 8.5 44 6.5 87 87 WNW 7 11 30.06 1018 10 16.0934 0 0
9:15 am 09:15 Sunny 49 9.4 44 6.8 84 84 WNW 8 13 30.06 1018 10 16.0934 0 0
9:35 am 09:35 Sunny 50 10.1 44 6.7 80 80 WNW 12 19 30.09 1019 10 16.0934 0 0
9:55 am 09:55 Sunny 51 10.7 44 6.4 75 75 WNW 14 22 30.06 1018 10 16.0934 0 0
10:15 am 10:15 Sunny 52 11.2 44 6.5 73 73 NW 12 19 30.06 1018 10 16.0934 0 0
10:35 am 10:35 Sunny 54 12.4 45 7.1 70 70 NW 12 19 30.06 1018 10 16.0934 0 0
10:55 am 10:55 Sunny 57 13.9 46 7.6 66 66 NW 9 15 30.09 1019 10 16.0934 0 0
11:15 am 11:15 Sunny 60 15.3 46 8 62 62 NW 13 20 30.06 1018 10 16.0934 0 0
11:35 am 11:35 Sunny 62 16.8 46 7.9 56 56 NW 12 19 30.06 1018 10 16.0934 0 0
11:55 am 11:55 Sunny 66 19.1 43 6.2 43 43 NW 16 26 30.03 1017 10 16.0934 0 0
12:15 pm 12:15 Sunny 68 20 39 4 35 35 NNW 18 30 30.03 1017 10 16.0934 0 0
12:35 pm 12:35 Sunny 69 20.8 37 2.8 31 31 NW 20 31 30 1016 10 16.0934 0 0
12:55 pm 12:55 Sunny 69 20.5 37 2.8 31 31 NNW 18 30 30.03 1017 10 16.0934 0 0
1:15 pm 13:15 Sunny 69 20.7 37 2.6 30 30 N 16 26 30.03 1017 10 16.0934 0 0
1:35 pm 13:35 Sunny 70 21.2 37 2.9 30 30 NNW 15 24 30.03 1017 10 16.0934 0 0
1:55 pm 13:55 Sunny 70 21.2 38 3.2 31 31 N 21 33 30.03 1017 10 16.0934 0 0
2:15 pm 14:15 Sunny 70 21.1 38 3.6 32 32 N 15 24 30 1016 10 16.0934 0 0
2:35 pm 14:35 Sunny 70 21.2 37 2.7 30 30 NNW 21 33 30.03 1017 10 16.0934 0 0
2:55 pm 14:55 Sunny 71 21.4 35 1.8 27 27 N 22 35 30.03 1017 10 16.0934 0 0
3:15 pm 15:15 Sunny 70 21.2 33 0.6 25 25 N 14 22 30.03 1017 10 16.0934 0 0
3:35 pm 15:35 Sunny 70 21.2 33 0.5 25 25 N 16 26 30.03 1017 10 16.0934 0 0
3:55 pm 15:55 Sunny 70 21.3 32 0.2 25 25 NNE 16 26 30.03 1017 10 16.0934 0 0
4:15 pm 16:15 Sunny 70 21.2 32 0 24 24 N 16 26 30.03 1017 10 16.0934 0 0
4:35 pm 16:35 Sunny 70 21.2 32 0 24 24 N 18 30 30.03 1017 10 16.0934 0 0
4:55 pm 16:55 Sunny 70 20.9 31 -0.5 24 24 NNW 15 24 30.09 1019 10 16.0934 0 0
5:15 pm 17:15 Sunny 69 20.5 31 -0.8 24 24 N 15 24 30.09 1019 10 16.0934 0 0
5:35 pm 17:35 Sunny 68 19.9 29 -1.4 24 24 N 17 28 30.09 1019 10 16.0934 0 0
5:55 pm 17:55 Sunny 67 19.2 29 -1.4 25 25 N 16 26 30.09 1019 10 16.0934 0 0
6:15 pm 18:15 Sunny 65 18.3 30 -1 27 27 N 9 15 30.09 1019 10 16.0934 0 0
6:35 pm 18:35 Sunny 63 17.2 31 -0.7 30 30 N 9 15 30.15 1021 10 16.0934 0 0
6:55 pm 18:55 Clear 60 15.5 31 -0.6 33 33 NNW 7 11 30.15 1021 10 16.0934 0 0
7:15 pm 19:15 Clear 57 13.9 31 -0.8 37 37 NNW 5 7 30.18 1022 7 11.26538 0 0
7:35 pm 19:35 Clear 55 12.5 31 -0.5 41 41 NW 5 7 30.18 1022 10 16.0934 0 0
7:55 pm 19:55 Clear 51 10.5 32 0.1 49 49 WNW 6 9 30.24 1024 10 16.0934 0 0
8:15 pm 20:15 Clear 48 8.7 33 0.7 58 58 WNW 7 11 30.27 1025 10 16.0934 0 0
8:35 pm 20:35 Clear 47 8.5 33 0.6 58 58 WNW 9 15 30.27 1025 10 16.0934 0 0
8:55 pm 20:55 Clear 46 7.7 33 0.5 61 61 WNW 8 13 30.27 1025 10 16.0934 0 0
9:15 pm 21:15 Clear 45 7.2 34 1 65 65 WNW 7 11 30.27 1025 10 16.0934 0 0
9:35 pm 21:35 Clear 43 6.3 34 1.2 70 70 WNW 7 11 30.27 1025 10 16.0934 0 0
9:55 pm 21:55 Clear 43 6.2 33 0.8 69 69 WNW 6 9 30.3 1026 10 16.0934 0 0
10:15 pm 22:15 Clear 42 5.5 33 0.8 72 72 WNW 6 9 30.33 1027 10 16.0934 0 0
10:35 pm 22:35 Clear 42 5.4 33 0.6 71 71 WNW 7 11 30.33 1027 10 16.0934 0 0
10:55 pm 22:55 Clear 42 5.3 34 1 74 74 NW 5 7 30.33 1027 10 16.0934 0 0
11:15 pm 23:15 Clear 41 4.8 33 0.7 75 75 WNW 5 7 30.33 1027 10 16.0934 0 0
11:35 pm 23:35 Clear 41 5 34 0.9 75 75 WNW 8 13 30.33 1027 10 16.0934 0 0
11:55 pm 23:55 Clear 41 5.1 33 0.6 73 73 W 8 13 30.33 1027 10 16.0934 0 0

Powered by AerisWeather